Preview of NWS' New Version of Forecast
This preview is not operational and should not be used for support decisions.

Regional Weather Roundup (RWR)

Issued by National Weather Service (NWS)

                            
000
ASUS45 KBOI 152110
RWRID 

IDAHO REGIONAL WEATHER ROUNDUP
NATIONAL WEATHER SERVICE BOISE ID
300 PM MDT MON OCT 15 2018

NOTE: "FAIR" INDICATES FEW OR NO CLOUDS BELOW 12000 FEET
WITH NO SIGNIFICANT WEATHER AND/OR OBSTRUCTIONS TO VISIBILITY

IDZ012-014-152200-
SOUTHWEST IDAHO

  
CITY           SKY/WX    TMP DP  RH WIND       PRES   REMARKS
BOISE          SUNNY     55  19  24 NW13      30.40F                  
CALDWELL       SUNNY     56  19  23 W6        30.42F                  
MOUNTAIN HOME  SUNNY     54  20  26 CALM      30.40F                  
$$

IDZ016-017-152200-
SOUTHCENTRAL IDAHO

  
CITY           SKY/WX    TMP DP  RH WIND       PRES   REMARKS
BURLEY         MOSUNNY   52  18  26 NW8       30.39F                  
JEROME         SUNNY     49  21  33 W12       30.40F                  
TWIN FALLS     SUNNY     51  20  29 W12       30.40F                  
$$

IDZ019>023-152200-
SOUTHEAST IDAHO

  
CITY           SKY/WX    TMP DP  RH WIND       PRES   REMARKS
IDAHO FALLS    SUNNY     44  20  38 VRB6      30.41F                  
POCATELLO      SUNNY     47  14  26 W7        30.42F                  
REXBURG        SUNNY     45  18  34 SW6       30.39F                  
$$

IDZ006-010-011-018-031-032-152200-
CENTRAL IDAHO MOUNTAINS

  
CITY           SKY/WX    TMP DP  RH WIND       PRES   REMARKS
MCCALL         SUNNY     53  23  31 VRB7      30.37F                  
HAILEY         SUNNY     46  25  42 SE10      30.40F                  
STANLEY          N/A     53  12  19 N9        30.37F                  
SALMON         SUNNY     48  17  29 CALM      30.40F                  
CHALLIS        SUNNY     51  15  23 CALM      30.37F                  
$$

IDZ002-004-006-007-026-152200-
NORTHERN IDAHO

  
CITY           SKY/WX    TMP DP  RH WIND       PRES   REMARKS
LEWISTON       SUNNY     57  27  31 VRB3      30.43F                  
LOWELL         NOT AVBL                                               
COEUR D'ALENE  SUNNY     56  27  32 S6        30.42F                  
MULLAN PASS    SUNNY     43  20  39 NW6       30.40F                  
$$